CAPE
338 290 194 268 247 367 306 197 215 270 243 243 76 314 608 585 1302 773 1091 940 861 1068 1244 1066 920 515 738 389 308 689 523 143 258 130 3 132 436 488 561 694 908 1071 1168 1067 1222 1426 1836 2485 2764 2765 2932 2943 2830 2702 2754 3008 3094 3008 2872 2798 3002 3145 3108 3045 3070 3181 3070 3031 2988 3091 3068 2913 2804 2866 3013 3066 3026 2964 2979 2914 2794 2756 2698 2644 2510 2632 2811 2887 3015 2951 2764 2684 2640 2480 2069 2245 2127
358 388 368 252 368 316 476 346 277 251 239 93 2 552 573 797 1076 981 1167 1282 1388 864 736 900 786 542 730 610 492 475 340 677 996 419 293 404 466 569 748 962 1006 1170 1365 1325 1422 1648 2036 2498 2937 2909 2928 2779 2678 2737 2885 3026 2908 2955 2952 3142 3235 3211 3181 3228 3209 3200 3070 3068 2912 2855 2881 2906 2829 2852 2842 2922 2966 2978 2908 2826 2704 2653 2573 2574 2554 2638 2904 2557 2924 2926 2730 2652 2550 2496 2094 2162 2594
415 473 402 550 299 526 528 423 372 250 198 8 2 345 704 668 968 1045 1363 1250 1334 902 962 712 640 679 708 433 533 460 330 744 464 360 507 462 527 659 902 962 1080 1302 1500 1576 1749 1977 2133 2373 2924 3208 2945 2765 2725 2838 2810 2992 2930 2960 3092 3184 3192 3210 3093 3103 3222 3144 3060 2940 2876 2786 2868 2914 2925 2811 2851 2913 2842 2830 2677 2691 2756 2770 2604 2584 2406 2422 2508 2482 2850 2729 2741 2537 2554 2174 2008 2045 2216
496 348 463 562 513 532 512 468 224 208 6 27 64 448 857 711 492 928 1196 1262 1052 754 664 540 762 464 584 770 588 668 288 465 368 364 348 450 414 761 911 1011 1358 1386 1560 1658 1831 1986 2140 2380 2960 3252 2941 2762 2825 2824 2774 2969 3126 3224 3097 3165 2984 3137 2965 3022 3169 3050 3094 2974 2880 2908 2954 2985 2841 2790 2812 2779 2779 2752 2620 2625 2828 2707 2554 2519 2298 2414 2296 2528 2698 2558 2518 2494 2427 2417 2182 2517 2526
592 513 496 485 508 545 445 622 336 311 306 78 4 973 953 788 651 707 655 978 857 1022 654 563 533 369 856 510 653 332 367 474 297 337 300 483 728 834 917 1126 1209 1431 1650 1734 1841 2012 2169 2652 3048 3121 2939 2874 2860 2834 2926 2885 2790 3040 2930 3028 2553 2626 2944 2930 2918 2925 2905 2734 2879 3027 2931 2836 2811 2892 2857 2809 2745 2837 2456 2631 2448 2646 2483 2418 2203 2148 2193 2308 2801 2719 2541 2543 2556 2204 2461 2582 2569
578 645 494 715 780 986 608 600 485 382 425 522 262 876 1065 969 1276 688 974 608 758 1072 463 609 597 433 596 568 586 469 378 415 268 330 380 641 794 816 1056 1303 1350 1504 1642 1727 1799 1984 2174 2782 2908 3038 2986 2894 2770 2886 2910 2710 2708 2990 2980 3054 2740 2555 2476 2722 2788 3034 2866 2927 2607 2743 2871 2866 2916 2798 2530 2619 2350 2729 2669 2644 2857 2488 2573 2290 2574 2532 2218 2178 2979 2796 2533 2441 2412 2442 2444 2523 2348
682 580 664 758 710 681 729 460 118 374 650 610 497 964 1236 1284 831 791 1003 613 351 513 476 525 516 573 630 531 514 360 313 276 338 318 505 716 766 950 1192 1281 1366 1454 1562 1654 1712 1940 2263 2940 2841 2992 3010 2852 2774 2937 3069 3155 3134 2840 2530 2833 2718 2777 2849 2788 2860 2855 2722 2644 2650 2706 2720 2800 2848 2861 2409 2349 2263 2730 2442 2461 2477 2411 2386 2285 2391 2124 2251 2199 2773 2642 2554 2477 2451 2503 2532 2358 2362
724 1081 1005 806 794 620 484 464 343 476 622 733 703 1024 1565 1390 968 912 712 463 439 536 439 447 458 468 360 430 642 340 364 607 418 551 628 716 837 1072 1167 1263 1331 1385 1456 1566 1741 2099 2672 2973 2884 2994 3024 2832 2853 3037 3080 3124 3158 3062 2993 2648 2952 2964 2939 2838 2464 2810 2739 2765 2532 2902 2744 2655 2747 2729 2800 2793 2680 2568 2644 2648 2799 2717 2269 2081 2430 2360 2534 2216 2477 2713 2632 2472 2443 2544 2500 2461 2606
973 1268 909 688 518 412 288 190 384 510 612 616 389 1339 1988 1416 1159 830 800 775 591 475 364 481 340 286 276 349 572 432 599 632 644 700 621 758 924 1008 1101 1198 1256 1270 1327 1474 1794 2223 2599 3063 2778 3074 3019 2829 2940 3105 3088 3139 3116 3015 2962 2892 3041 2896 2891 2805 2728 2724 2864 2931 2829 2738 2711 2722 2648 2783 2811 2707 2626 2449 2414 2484 2431 2636 2426 2300 2332 2252 2265 2150 2143 2661 2592 2484 2455 2555 2572 2157 2383
1046 1006 851 584 592 310 352 11 368 177 790 1214 708 755 1524 1328 1309 528 558 539 493 508 508 487 395 309 386 330 478 668 736 675 607 556 656 760 856 908 1031 1163 1209 1231 1347 1577 1903 2360 2610 3154 2722 2970 3064 2882 3028 3086 3146 3174 3094 3094 2929 2956 2993 2863 2875 2794 2723 2566 2531 2676 2927 2954 2734 2767 2762 2590 2768 2895 2766 2432 2729 2442 2583 2507 2222 2458 2364 2220 2574 2694 2651 2758 2808 2548 2505 2640 2402 2359 2548
1041 908 1259 685 413 21 78 16 19 179 248 572 868 1290 1425 994 1178 1106 532 498 435 465 471 391 409 393 412 468 586 710 675 585 538 565 603 692 733 863 1030 1162 1211 1296 1456 1679 2040 2458 2753 2790 2726 2950 3084 2951 3068 3038 3110 3122 3074 2966 2969 2961 2898 2806 2734 2749 2661 2677 2824 2742 2420 2540 2974 2944 2818 2714 2521 2370 2569 2785 2741 2677 2505 2522 2745 2346 2224 2230 2280 2396 2385 2545 2781 2606 2588 2667 2487 2617 2688
1044 964 926 630 411 100 9 68 61 12 558 652 1406 1228 1004 1025 1184 680 686 458 416 450 595 572 512 454 516 575 656 694 576 520 502 505 542 578 724 922 1076 1246 1347 1355 1537 1822 2211 2463 2712 2664 2566 2780 3130 2976 3073 3059 3135 3097 3049 2936 2975 2895 2779 2631 2670 2650 2645 2810 2876 2895 2934 2554 2967 2922 2784 2721 2526 2567 2747 2761 2787 2938 2804 2424 2600 2782 2502 2348 2475 2604 2758 2727 2667 2633 2678 2634 2476 2430 2782
996 869 790 506 440 378 137 174 2 372 6 71 802 996 974 783 994 1307 577 671 496 580 448 582 262 513 543 614 728 613 547 489 444 449 460 581 853 1036 1309 1438 1479 1481 1675 2057 2281 2502 2584 2503 2486 2582 2984 2980 3082 3080 3097 3111 2923 2989 2943 2787 2728 2684 2580 2644 2693 2788 2851 3098 3091 2520 2631 2633 2872 2867 2833 2845 2927 2983 3017 2946 2878 2749 2730 2708 2736 2389 2488 2546 2696 2736 2746 2750 2838 2517 2606 2700 2450
1092 817 728 519 513 578 499 426 250 536 2 120 986 829 768 790 641 1382 1287 587 579 636 501 576 462 630 618 618 828 710 611 467 407 392 440 725 1006 1288 1551 1594 1626 1687 1927 2126 2319 2442 2466 2411 2438 2522 2850 2760 2870 2957 2947 3010 2922 3026 2872 2712 2691 2554 2504 2702 2775 2863 2894 3026 2955 2924 2628 2620 2823 2857 2965 2930 3043 3043 2986 2921 2980 2929 2884 2886 2848 2709 2415 2596 2810 2966 2965 2917 2721 2809 2806 2776 2724
990 842 718 611 554 609 524 278 24 111 274 399 985 811 556 808 1204 1354 1066 631 619 604 536 478 657 568 596 652 647 745 655 472 404 344 522 887 1239 1537 1698 1737 1788 1920 2064 2182 2322 2357 2348 2409 2409 2450 2604 2644 2638 2638 2702 2951 2923 3040 2720 2724 2605 2388 2578 2695 2698 2786 2908 2911 2898 2924 2963 2828 2800 2912 2963 2854 3030 2997 2826 2447 2285 2806 2961 2940 2809 2799 2892 2866 2844 2844 2923 2865 3052 3171 2870 2755 2803
1147 942 820 734 417 238 79 154 15 0 14 549 817 659 586 527 811 664 678 928 537 592 642 808 474 626 572 602 611 739 693 462 384 390 632 1078 1469 1754 1859 1848 1910 2047 2131 2212 2276 2322 2316 2413 2351 2444 2484 2547 2510 2500 2764 2739 2928 2922 2707 2662 2580 2645 2655 2667 2622 2849 3046 2881 2912 2927 2894 3122 2868 2976 3045 2911 2381 2324 2380 2684 2872 2888 2784 2774 2840 2881 2853 2816 2953 2843 2927 3019 3030 3012 2784 2765 2653
1110 1036 796 626 462 348 159 70 0 10 6 638 823 604 662 568 835 1102 660 619 627 615 528 691 764 650 607 632 737 799 672 522 451 504 792 1248 1524 1785 1846 1818 1898 2032 2122 2193 2228 2232 2283 2330 2309 2410 2318 2382 2452 2420 2740 2685 2895 2932 2688 2830 2648 2623 2595 2673 2561 2911 3018 2908 2884 2850 2979 2996 2957 2982 2814 2856 2329 3020 2615 2374 2667 2946 2800 2722 2888 2879 2884 2948 3039 2993 2912 2861 2900 2705 2692 2803 2686
1506 966 620 501 483 336 179 147 6 9 6 172 399 444 407 685 522 639 612 590 685 586 680 710 605 668 606 556 752 790 630 516 543 656 928 1253 1467 1619 1696 1646 1850 1963 2107 2144 2183 2197 2254 2262 2320 2306 2152 2227 2330 2591 2677 2672 2814 2930 2906 2833 2809 2630 2556 2541 2604 2775 3007 2770 2867 2797 2848 3586 2866 2836 2915 2925 3320 3124 2936 2540 2376 2774 2796 2496 2819 2944 2985 2956 2895 2966 2924 2964 3018 2883 3064 2483 2420
1030 933 771 495 344 382 165 128 8 50 58 96 343 374 352 501 432 473 586 519 632 734 664 603 642 588 543 666 769 734 594 516 754 782 992 1159 1341 1481 1530 1478 1567 1766 2018 2086 2087 2139 2175 2217 2287 2204 2036 2128 2282 2615 2628 2708 2744 2724 2830 2813 2926 3006 2880 2999 2738 3352 2837 2667 2644 2641 3000 2988 2780 2714 3084 3185 3260 3146 3236 2415 2610 2970 2994 2788 2941 2922 3043 3011 2884 3021 2967 2966 2897 2971 2931 2430 2125
840 788 736 608 494 312 163 85 54 79 56 159 312 252 384 440 415 317 564 552 639 645 579 535 684 622 578 704 705 646 544 708 830 869 994 1128 1273 1399 1404 1360 1426 1712 1877 1972 2004 2091 2120 2190 2219 2095 1989 2110 2321 2542 2614 2681 2686 2686 2820 2849 2778 2945 2847 3036 2845 3075 2739 2652 2548 2495 2740 2765 2700 2709 3359 2866 2864 3331 2961 2359 2415 2557 2956 2992 2941 3383 2745 2696 2808 2974 3297 2693 3794 3476 2326 2492 2510
850 719 610 503 392 325 242 164 146 57 43 174 216 178 272 385 405 524 673 571 628 543 596 576 703 630 641 684 647 542 560 796 840 911 1006 1137 1253 1400 1360 1276 1328 1599 1777 1839 1964 2057 2110 2157 2133 2014 1992 2147 2280 2434 2564 2575 2723 2774 2852 2968 2891 2975 2793 2950 2859 3022 2671 2634 2483 2610 2786 2616 2512 2630 3143 2993 3074 3001 3062 3064 3019 3030 2828 2982 3636 2862 2864 2924 3322 3177 3126 3732 3149 3102 2834 2464 2653
734 834 668 457 122 166 194 202 190 25 100 161 161 173 200 214 416 540 575 520 653 604 658 631 708 678 663 635 586 484 616 875 893 942 1050 1163 1263 1340 1336 1257 1280 1560 1731 1793 1923 2009 2069 2096 2058 1957 2008 2158 2225 2328 2452 2663 2739 2700 2818 2992 2924 2962 2903 2908 2806 2866 2655 2608 2484 2504 2803 2540 2297 2438 3084 2748 2856 2876 3012 3004 2973 2919 2844 3017 3197 2478 2519 2692 3007 2757 3007 3256 2568 2724 2784 2504 2373
517 510 552 625 500 344 148 103 206 33 108 189 149 209 82 169 220 282 329 642 668 625 679 633 725 716 664 643 599 579 683 866 930 972 1069 1160 1254 1308 1298 1225 1296 1489 1669 1704 1856 1959 2004 2010 1990 1911 1955 2126 2175 2212 2260 2586 2620 2569 2686 2874 2848 2838 2937 2834 2738 2777 2629 2554 2523 2406 2743 2455 2205 2423 3030 2606 2517 2722 2854 2884 2836 2770 2712 2725 3211 2486 2352 2460 2524 2297 2292 2430 2726 2616 2528 2174 1669
301 402 354 176 198 390 227 104 134 60 113 139 160 179 120 37 82 159 328 318 694 684 694 626 702 715 670 685 661 696 771 921 974 1012 1060 1156 1246 1312 1220 1161 1278 1420 1553 1635 1764 1878 1953 1904 1874 1806 1846 2003 2049 2122 2141 2445 2480 2463 2559 2750 2776 2711 2814 2839 2706 2710 2534 2337 2338 2419 2776 2426 2219 2429 2862 2558 2166 2478 2743 2716 2671 2583 2572 2538 2618 2689 2320 2380 2503 2482 2444 2244 2496 2653 2509 2357 1942
229 51 78 149 11 26 79 50 34 4 118 60 47 120 132 32 9 14 55 165 580 683 682 674 646 734 714 711 696 741 797 935 1008 1027 1012 1042 1202 1283 1149 1110 1262 1338 1439 1538 1652 1812 1877 1816 1696 1661 1677 1819 1879 1996 2051 2242 2368 2304 2361 2558 2605 2638 2684 2752 2580 2456 2300 2082 2068 2232 2856 2425 2161 2371 2654 2508 2027 2226 2469 2488 2492 2398 2384 2408 2432 2569 2347 2310 2228 2173 2173 2029 1886 1838 2024 1935 1684
0 14 48 25 9 12 0 4 14 54 5 0 6 14 18 50 0 4 74 238 440 596 690 712 703 703 721 752 752 796 857 944 1035 1057 1031 1022 1182 1281 1188 1079 1208 1242 1332 1441 1575 1728 1792 1712 1576 1490 1483 1599 1666 1823 1905 2060 2206 2145 2104 2264 2363 2583 2540 2578 2064 2028 2137 1994 1848 1977 2456 2348 2135 2282 2509 2274 1950 1922 2140 2298 2468 2400 2332 2244 2186 2293 2142 2056 1998 1956 2099 2248 2096 1954 2227 2034 1924
0 0 0 0 4 5 3 7 49 8 9 0 0 22 17 0 0 0 362 324 496 570 670 680 684 667 689 710 773 794 857 911 990 1079 1060 1071 1186 1263 1234 1114 1138 1168 1231 1346 1484 1640 1706 1630 1484 1337 1286 1452 1419 1652 1696 1864 2016 1935 1886 2012 2172 2194 2298 2213 1668 1716 1912 1940 1886 1980 2236 2222 1867 2036 2385 2246 2168 1936 2127 2352 2507 2531 2271 2232 2196 2054 1983 1794 1804 2066 2218 2335 2023 2026 2428 1963 2377
0 0 0 0 0 0 0 18 38 2 12 0 38 72 1 0 0 0 610 489 508 547 586 596 671 685 715 742 813 840 864 907 938 998 1064 1076 1171 1230 1190 1008 1072 1069 1159 1248 1375 1531 1603 1538 1422 1229 1163 1262 1220 1446 1540 1623 1788 1767 1652 1730 1874 1923 1947 1890 1528 1564 1716 1750 1872 2017 2090 2173 2092 1808 2140 2153 2291 2196 2201 2348 2426 2470 2328 2126 2062 1964 1740 1834 1959 2059 2248 2295 1912 2160 2195 1781 1996
0 0 0 0 0 0 0 0 119 29 86 32 26 183 0 0 4 190 671 519 507 508 498 477 636 693 744 760 827 870 885 911 927 936 1000 1079 1150 1173 1159 1019 1028 1007 1074 1172 1308 1430 1486 1452 1338 1160 1150 1197 1068 1205 1252 1291 1512 1546 1405 1376 1520 1576 1671 1579 1336 1434 1592 1681 1842 2048 2042 2084 2059 1630 1891 1960 2534 2269 2350 2347 2304 2142 1975 1789 1637 1798 1608 1790 2342 2420 2981 3160 2807 2350 1907 1749 2107
0 0 0 0 0 0 0 0 13 128 112 214 102 0 0 0 0 580 726 567 501 486 451 470 512 644 686 710 769 837 878 908 912 922 967 1036 1114 1161 1164 1058 1012 961 990 1104 1212 1350 1392 1348 1244 1072 1125 1188 1052 996 945 887 1124 1284 1178 1076 1269 1324 1375 1462 1180 1246 1519 1623 1806 2048 2062 2010 1924 1572 1580 1801 1943 1943 2115 2226 2142 1773 1710 1674 1750 1922 2042 2348 2266 2372 2758 2626 2873 2697 2000 1651 1503
0 0 0 0 0 0 0 0 24 98 165 46 2 3 0 0 33 718 709 600 549 535 512 478 464 562 622 613 676 742 809 872 896 891 927 982 1042 1098 1111 1102 1037 933 941 1040 1152 1277 1322 1258 1155 1010 1258 1183 1264 949 758 470 800 1032 1014 895 1065 1208 1128 1312 1220 1145 1386 1613 1758 1962 2055 1939 2028 1564 1401 1528 1754 1676 1744 1771 1648 1365 1567 2098 2197 2282 2424 2369 1940 2147 2798 2135 1821 2089 1635 1870 1732
0 0 0 0 0 0 0 0 4 90 9 200 173 0 0 0 14 654 697 642 595 597 553 498 481 459 570 584 626 691 748 799 830 843 886 931 978 1036 1039 1089 1092 941 928 999 1096 1185 1265 1190 1127 1001 1168 1150 1196 1042 694 308 555 838 879 1018 812 1044 1058 1138 1261 1160 1136 1375 1656 1861 2072 2166 2204 1772 1672 1543 1660 1609 1574 1464 1328 1427 1770 2356 2644 2412 2352 2276 2006 1850 2492 2043 1798 1624 2531 1520 1214
0 0 0 0 0 0 0 0 0 26 24 14 4 4 0 4 167 678 665 644 602 584 557 511 481 394 470 531 613 638 669 708 753 796 815 844 892 967 1008 1050 1103 1026 946 1002 1052 1140 1206 1183 1269 1017 1106 1132 1155 1113 921 243 244 515 799 838 750 870 1060 1056 1171 1232 1118 1357 1674 1782 2049 2302 2283 1978 1694 1669 1650 1644 1582 1480 1462 1519 2167 2485 2680 2412 2426 2007 1782 1761 1859 2854 1882 1529 1824 1760 1077
0 0 0 0 0 0 0 0 0 8 15 32 1 0 0 2 322 664 673 639 602 595 561 543 476 367 326 391 533 585 587 627 688 748 797 819 875 917 933 1061 1100 1098 982 1033 1045 1088 1163 1184 1132 1042 1065 1124 1133 1124 1096 547 118 228 698 830 921 805 943 1017 1045 1178 1314 1602 1694 1772 2083 2331 2085 1934 1824 1769 1674 1730 1701 1719 1725 1943 2487 2454 2372 2248 2141 1933 1770 1892 2403 2528 2062 1788 1780 1420 863
0 0 0 0 0 0 0 0 0 6 2 30 11 0 0 7 454 594 668 663 633 611 574 541 462 380 342 176 385 559 588 604 658 709 776 834 894 977 994 1065 1042 1086 1053 1068 1060 1050 1088 1130 1116 1063 1062 1111 1135 1118 1100 1006 418 142 521 837 941 884 866 1009 1056 1240 1430 1685 1744 1783 2090 2304 2132 2012 1958 1826 1710 2022 2033 2047 2012 2247 2595 2459 2270 2064 2317 2320 1909 1754 2142 2276 2828 1955 1827 1585 1612
0 0 0 0 0 0 0 0 0 21 5 20 12 0 0 0 496 554 638 690 660 627 559 496 435 375 307 192 202 471 594 626 632 682 743 826 883 999 1074 1131 1082 1086 1078 1104 1116 1058 1034 1070 1096 1064 1078 1086 1124 1130 1080 1012 989 387 574 824 962 1003 909 982 1115 1292 1558 1716 1766 1780 2037 2258 2127 2130 2060 1851 1763 1969 2130 2212 2204 2286 2519 2457 2099 2075 2503 2732 2408 1726 2135 2240 2162 3192 2268 1952 1105
0 0 0 0 0 0 0 0 0 29 16 0 10 19 2 0 301 553 583 652 642 589 552 492 437 383 259 206 214 255 510 619 638 686 709 794 864 974 1108 1180 1176 1166 1142 1139 1164 1101 1034 1044 1058 1049 1075 1072 1090 1073 1027 1015 986 877 543 834 1006 1033 980 966 1143 1330 1618 1697 1783 1789 1932 2115 2133 2214 2305 1900 1860 2271 1993 2076 2187 2274 2395 2412 2128 1965 2229 2637 2519 2068 1925 2837 1879 1699 1944 1698 629
0 0 0 0 0 0 0 0 0 0 18 0 2 74 3 0 38 511 536 559 583 554 540 521 472 412 350 236 229 244 414 505 597 647 679 698 818 932 1080 1190 1222 1236 1231 1195 1196 1155 1070 1035 1040 1054 1064 1060 1047 1031 1028 1060 1026 970 604 796 1046 1057 1012 986 1080 1324 1619 1746 1812 1794 1872 1952 2003 2165 2483 2124 1868 1984 1921 1908 2030 2227 2322 2406 2271 2131 2325 2706 2870 2343 2208 2384 2184 1671 1735 1810 889
0 0 0 0 0 0 0 0 0 0 0 0 57 10 0 0 0 302 523 526 533 497 492 508 490 440 386 275 244 248 340 423 528 614 647 656 774 914 1024 1156 1222 1266 1310 1281 1245 1209 1128 1048 1055 1034 1046 1063 1041 1017 1022 1043 1006 1014 689 758 1056 1112 1050 1051 989 1142 1445 1714 1810 1834 1862 1828 1907 1974 2419 2394 2232 2163 2094 1900 1912 2092 2304 2454 2552 2406 2647 2810 2578 2304 2320 2162 2033 2203 2276 1946 1269
0 0 0 0 0 0 0 0 0 1 0 0 0 0 0 0 0 101 454 505 505 474 456 475 467 444 400 358 296 282 264 384 445 549 620 626 616 910 985 1079 1182 1244 1312 1338 1310 1265 1193 1103 1074 1066 1061 1063 1040 1026 1156 1017 986 1008 797 859 1032 1130 1180 1172 1083 1066 1102 1544 1751 1875 1991 1916 1872 1834 2033 2439 2412 2306 2114 1908 1930 2008 2335 2318 2418 2357 2574 2522 2371 2302 2218 2069 1890 2064 2004 1918 1884
0 0 0 0 0 0 0 0 0 0 0 0 1 6 1 0 0 0 108 452 462 447 441 453 436 425 361 346 336 369 366 380 404 471 563 588 571 777 948 1019 1113 1196 1269 1333 1352 1322 1289 1222 1138 1150 1137 1092 1044 1003 1125 1044 1050 1072 1016 1048 1099 1118 1148 1211 1210 1217 1162 1151 1538 1792 1989 2109 1994 1908 1823 2149 2290 2244 2142 2116 2086 1957 2151 2318 2291 2222 2349 2288 2146 2167 2202 2110 2048 1895 1794 1731 1690
0 0 0 0 0 0 0 0 0 0 0 0 0 4 0 0 0 0 1 68 269 431 442 446 455 448 410 390 368 321 389 398 418 444 518 563 550 531 798 936 1039 1126 1204 1272 1350 1332 1305 1307 1234 1186 1225 1154 1091 997 1077 1068 1046 1119 1178 1084 1166 1164 1188 1191 1223 1252 1154 1071 1148 1487 1869 2094 2106 2001 1894 1941 2182 2142 2084 2084 2084 1949 1870 2204 2257 2113 2232 2218 2164 2180 2186 2158 2158 2085 1675 1536 1111
0 0 0 0 0 0 0 0 0 2 0 0 0 0 0 0 0 0 0 6 83 194 404 454 465 478 455 437 420 438 427 430 418 434 462 484 466 464 553 796 966 1053 1123 1171 1280 1312 1263 1291 1311 1253 1275 1229 1143 1024 1069 1224 1013 1064 1114 1100 1111 1126 1143 1178 1231 1261 1236 1164 1149 1272 1637 1965 2110 2060 1986 1916 2028 2142 2035 1955 2002 2024 1926 2157 2459 2222 2319 2415 2340 2387 2392 2256 2204 2160 1958 1496 920
0 0 0 0 0 0 0 0 0 0 0 0 0 0 0 0 0 0 0 4 25 25 41 363 426 483 486 463 484 498 483 474 459 458 452 432 393 422 504 599 852 982 1052 1098 1182 1260 1242 1233 1292 1324 1332 1301 1218 1096 1026 1202 1080 1055 1078 1082 1101 1142 1118 1159 1195 1265 1245 1207 1200 1363 1545 1826 2061 2092 2040 1978 1980 2085 2076 1937 1828 2092 2208 2262 2614 2514 2441 2537 2600 2535 2478 2469 2429 2229 2043 1572 934
0 0 0 0 0 0 0 0 8 7 2 0 0 0 0 0 0 0 0 0 1 3 30 35 58 357 478 484 502 542 546 545 519 492 472 465 457 462 480 503 651 859 932 1004 1092 1194 1223 1208 1236 1298 1351 1387 1323 1174 1049 1181 1193 1085 1059 1068 1098 1150 1146 1122 1138 1193 1216 1178 1222 1360 1579 1762 1990 2091 2060 2038 1993 2008 2094 1942 1786 1911 2225 2362 2841 2822 2709 2667 2705 2672 2590 2627 2617 2513 2292 1804 1091
0 0 0 0 0 0 0 0 0 7 4 0 0 0 0 0 0 0 0 0 2 40 56 36 21 75 346 472 487 530 587 598 589 559 518 494 498 499 505 251 523 724 847 918 1014 1096 1144 1154 1160 1200 1268 1354 1395 1318 1138 1146 1210 1176 1063 1030 1033 1101 1126 1117 1115 1148 1152 1150 1208 1285 1530 1724 1936 2054 2073 2052 2002 1996 2050 2008 1856 1807 2017 2252 2622 2898 2914 2810 2759 2775 2762 2709 2703 2719 2544 2202 1667
0 0 0 0 0 0 0 0 0 0 0 0 0 0 0 0 0 0 0 15 100 92 54 23 19 20 71 333 412 458 582 631 634 621 596 558 530 528 526 526 536 564 760 863 948 1013 1056 1065 1073 1100 1152 1233 1324 1356 1284 1152 1195 1232 1147 1066 1041 1049 1086 1126 1127 1135 1112 1118 1192 1242 1371 1615 1845 2001 2018 2036 2023 1998 2018 2037 1968 1889 1912 2218 2526 2668 2773 2750 2726 2776 2780 2738 2748 2813 2672 2310 2006
0 0 0 0 0 0 0 0 0 0 0 0 0 0 0 0 0 0 3 45 34 53 58 26 24 38 46 85 180 292 516 636 660 658 642 619 560 532 542 557 561 573 643 804 912 962 993 995 994 1030 1070 1134 1183 1226 1243 1174 1197 1242 1217 1132 1061 1027 1045 1080 1116 1109 1102 1073 1106 1171 1141 1472 1702 1904 1971 1974 2010 2006 2010 2077 2098 2085 2082 2128 2321 2505 2689 2807 2807 2794 2794 2806 2853 2876 2680 2301 1974
0 0 0 0 0 0 0 0 0 0 0 0 0 0 0 0 0 0 0 4 31 52 68 48 40 56 71 60 90 206 441 596 682 680 674 654 618 570 576 586 582 572 570 738 874 943 978 980 978 996 1024 1075 1147 1142 1152 1189 1200 1225 1235 1182 1106 1051 1039 1055 1060 1066 1077 1003 963 984 1016 1219 1551 1761 1898 1913 1942 1996 2004 2032 2122 2196 2232 2236 2263 2433 2585 2742 2912 2927 2928 2945 2910 2805 2670 2348 1907
0 0 0 0 0 0 0 0 0 0 0 0 0 0 0 0 0 0 0 0 25 32 46 42 49 62 138 94 66 119 308 540 657 684 690 696 665 639 627 628 600 579 573 624 810 889 961 982 978 988 1020 1064 1153 1168 1190 1229 1218 1232 1235 1210 1176 1125 1074 1048 1053 1022 1006 1000 883 834 836 914 1315 1549 1709 1797 1838 1950 1983 1973 2012 2136 2236 2305 2342 2410 2517 2592 2726 2870 2928 2930 2876 2757 2648 2450 1935
0 0 0 0 0 0 0 0 0 0 0 0 0 0 0 0 0 0 0 0 0 1 8 8 24 50 60 153 167 176 236 458 642 672 710 722 696 680 676 673 636 610 603 581 738 830 887 956 972 988 1044 1096 1164 1198 1215 1253 1258 1247 1243 1236 1199 1182 1132 1060 1051 1018 962 914 861 775 755 784 1004 1326 1496 1619 1672 1835 1968 1972 1976 2068 2227 2361 2431 2448 2495 2546 2590 2686 2796 2840 2804 2762 2754 2621 2257
0 0 0 0 0 0 0 0 0 0 0 0 0 0 0 0 0 0 0 0 0 0 0 1 0 7 21 132 152 140 174 405 631 690 714 744 750 724 707 694 671 632 617 614 659 764 824 898 932 990 1051 1115 1188 1219 1226 1253 1257 1250 1261 1251 1230 1181 1159 1113 1055 1034 991 900 816 790 763 718 788 1019 1304 1448 1544 1632 1866 1963 1985 2046 2164 2342 2482 2517 2529 2550 2598 2659 2720 2743 2732 2745 2799 2710 2409
0 0 0 0 0 0 0 0 0 0 0 0 0 0 0 0 0 0 0 0 0 0 0 0 2 0 0 3 152 75 95 293 588 692 733 770 778 776 750 732 715 666 658 660 657 716 779 846 898 966 1039 1106 1209 1281 1272 1282 1277 1258 1259 1264 1261 1207 1150 1126 1068 1046 1052 975 893 844 884 776 736 864 1068 1324 1444 1491 1656 1849 1936 2004 2104 2267 2446 2569 2577 2585 2621 2684 2780 2799 2701 2744 2790 2701 2468
0 0 0 0 0 0 0 0 0 0 0 0 0 0 0 0 0 0 0 0 0 0 0 0 1 0 0 0 2 27 112 236 462 664 748 774 804 817 794 769 758 728 716 730 706 689 738 817 880 935 1015 1077 1181 1292 1321 1328 1315 1292 1277 1287 1280 1227 1179 1147 1082 1019 1054 1092 1028 970 960 1004 910 965 1092 1298 1420 1493 1559 1997 1815 1896 2020 2171 2332 2499 2600 2625 2644 2696 2763 2812 2802 2789 2768 2713 2576
0 0 0 0 0 0 0 0 0 0 0 0 0 0 0 0 0 0 0 0 0 0 0 0 0 0 0 0 0 14 106 240 427 615 739 784 803 822 837 840 807 753 768 813 778 749 739 786 842 895 978 1032 1128 1266 1353 1360 1352 1329 1309 1302 1287 1252 1186 1138 1097 999 961 1123 1149 1062 1000 1101 1120 1078 1230 1348 1462 1504 1548 1674 1785 1843 1946 2090 2235 2349 2497 2584 2623 2636 2688 2758 2822 2852 2727 2598 2562
0 0 0 0 0 0 0 0 0 0 0 0 0 0 0 0 0 0 0 0 0 0 0 0 0 0 0 8 7 21 111 248 373 560 689 802 844 842 865 869 839 792 783 870 875 824 812 786 820 862 910 977 1050 1180 1316 1381 1384 1354 1320 1284 1282 1256 1210 1144 1095 1037 944 980 1223 1187 1056 1036 1215 1226 1303 1394 1480 1520 1557 1587 1730 1826 1904 2019 2140 2250 2344 2457 2507 2518 2525 2588 2719 2843 2811 2603 2493
0 0 0 0 0 0 0 0 0 0 0 0 0 0 0 0 0 0 0 0 0 0 0 0 0 0 0 0 20 36 112 302 418 566 677 777 838 843 851 848 821 784 740 878 942 944 890 851 825 894 898 957 1014 1077 1189 1286 1315 1335 1309 1285 1256 1258 1239 1186 1112 1053 1010 928 1035 1285 1268 1127 1177 1352 1402 1471 1508 1548 1572 1579 1631 1754 1841 1940 2058 2165 2253 2337 2394 2410 2426 2475 2567 2699 2794 2729 2494
0 0 0 0 0 0 0 0 0 0 0 0 0 0 0 0 0 0 0 0 0 0 0 0 0 0 0 1 44 56 102 239 460 601 679 774 829 845 839 832 814 764 729 880 974 1004 1010 959 912 968 958 966 1007 1051 1104 1191 1239 1272 1290 1273 1248 1239 1242 1220 1171 1102 1098 1072 995 1115 1380 1390 1296 1366 1514 1581 1590 1600 1604 1604 1600 1652 1761 1850 1978 2107 2221 2292 2341 2353 2379 2402 2480 2582 2630 2673 2559
Wind_Speed
7 4 2 3 1 1 2 4 6 3 7 11 nan 11 13 13 13 12 14 13 13 10 10 6 3 4 10 10 6 8 14 3 8 3 nan 5 5 7 4 8 12 11 9 6 6 5 6 7 10 12 12 11 11 10 10 10 10 11 11 11 10 9 8 7 6 5 5 5 5 4 4 4 4 3 2 1 0 0 1 1 2 1 1 1 1 1 1 1 2 2 3 4 4 4 5 5 5
5 3 3 3 3 3 4 4 5 5 9 nan nan 9 12 13 11 12 13 13 13 9 8 7 3 5 13 3 2 5 12 13 10 4 7 2 6 6 7 7 12 12 9 7 5 5 5 6 11 12 12 12 12 12 11 11 11 12 11 11 10 9 8 7 6 5 4 4 4 4 4 4 4 3 1 1 2 2 2 2 2 2 1 1 1 1 1 1 1 2 2 3 3 4 4 4 2
4 4 2 2 0 4 3 6 7 7 11 nan nan 8 10 9 10 12 12 13 15 6 8 7 3 6 8 8 6 7 8 9 6 5 3 2 6 4 10 10 10 12 9 5 4 3 2 5 10 11 13 12 12 12 13 12 12 12 12 11 10 9 8 8 7 6 5 4 4 4 4 4 3 2 1 1 2 2 3 3 3 3 2 2 2 1 1 1 1 2 2 2 3 3 4 4 4
2 1 3 5 6 6 6 7 10 9 nan nan nan 11 14 11 11 11 12 13 11 6 8 7 5 10 8 8 5 7 5 4 7 5 1 6 2 6 9 11 9 9 7 4 3 2 2 8 10 11 12 12 12 12 13 13 13 12 12 11 10 9 9 8 7 6 5 5 4 4 4 4 3 2 2 2 2 3 3 3 4 3 3 1 3 2 2 1 0 1 1 1 2 3 4 5 4
3 0 3 4 5 7 8 10 11 10 14 nan nan 13 14 15 14 9 11 8 10 11 8 8 9 12 7 2 5 5 6 6 2 8 2 2 3 5 7 10 9 9 7 4 3 3 3 9 9 11 12 12 12 12 13 13 13 12 11 11 11 11 9 9 8 6 5 5 5 4 4 4 4 4 4 4 3 3 2 4 3 3 3 2 2 2 1 2 1 0 1 1 1 1 3 3 3
4 2 7 7 6 9 10 11 11 13 17 12 13 14 14 13 11 9 8 4 6 14 8 7 7 5 8 9 6 4 5 2 5 3 5 3 7 10 7 7 8 7 6 4 3 2 4 10 11 12 12 12 13 13 13 13 12 11 11 11 11 11 10 9 8 6 5 5 5 5 4 4 4 4 4 4 3 3 3 4 3 3 2 3 2 3 1 4 3 1 1 1 1 1 1 2 2
1 2 5 7 9 8 11 11 12 11 16 10 12 11 12 10 10 10 4 4 5 10 12 8 3 4 5 6 5 4 2 5 4 4 2 10 7 9 8 5 8 7 7 4 3 4 6 11 12 13 12 12 13 13 13 12 11 11 10 10 11 10 9 9 8 7 6 5 4 4 4 4 3 4 3 2 2 4 5 4 4 2 0 3 1 3 2 4 4 2 2 1 1 1 0 1 2
3 5 4 6 8 8 10 12 13 7 10 8 12 9 9 7 9 11 5 4 3 8 4 3 5 3 5 7 2 3 5 2 7 7 11 13 8 8 7 5 7 6 6 5 4 3 9 13 12 13 12 13 13 13 12 11 10 10 10 11 10 9 9 9 8 6 6 4 5 5 4 4 3 2 1 2 4 6 5 5 4 3 2 3 3 4 4 5 3 2 2 2 1 1 1 2 2
5 7 8 6 7 8 10 9 9 7 6 6 12 10 6 6 7 7 9 9 4 2 3 2 3 4 2 5 4 2 3 7 10 13 12 14 10 7 5 4 6 5 6 6 5 4 5 11 13 13 13 13 13 12 11 10 10 10 10 10 9 9 8 7 7 8 6 5 5 4 4 4 3 2 3 4 8 6 6 6 6 3 3 3 4 5 5 8 4 2 2 2 1 1 1 2 2
6 9 6 7 8 8 7 nan 4 7 5 7 9 10 6 8 6 6 7 10 2 0 3 5 7 4 7 5 3 3 1 10 14 13 12 13 11 5 7 6 7 8 6 5 5 5 4 11 14 13 13 13 12 11 11 10 10 10 10 9 8 8 7 7 6 7 7 7 5 3 4 4 4 4 4 7 8 6 6 7 5 6 4 3 3 5 7 5 3 3 3 4 3 2 2 1 1
7 7 10 9 9 nan nan nan nan 7 5 6 8 8 7 8 6 6 7 7 2 2 3 8 7 5 6 3 5 2 7 13 16 16 14 13 10 6 6 6 7 8 8 6 5 4 3 6 14 13 13 12 11 11 10 10 10 10 9 9 8 7 6 6 6 6 6 6 7 7 5 5 5 5 7 6 6 5 7 7 8 7 5 5 5 5 7 6 3 3 4 4 4 3 3 2 2
8 7 8 10 9 6 nan nan nan nan 6 5 5 5 8 5 8 7 9 5 3 5 4 2 1 4 8 2 3 4 10 13 14 15 14 11 8 6 6 5 7 8 9 8 5 2 3 4 5 11 13 12 11 11 10 10 10 9 9 8 8 7 6 6 6 6 6 5 5 6 8 8 9 7 6 6 6 6 6 7 7 7 6 6 4 4 5 4 3 4 4 4 4 3 3 2 3
8 9 9 9 9 5 7 7 nan 5 nan nan 4 6 5 3 5 8 10 7 4 5 5 2 10 3 3 2 1 4 10 12 14 16 15 9 7 6 6 6 6 8 8 7 6 3 3 3 4 5 7 12 10 10 10 10 9 8 8 8 7 6 6 6 6 7 7 7 8 8 8 8 8 8 8 7 7 7 6 6 7 7 6 6 5 4 3 4 4 4 5 4 4 4 3 3 3
8 6 7 8 7 7 9 8 5 2 nan 6 5 2 5 2 6 6 7 3 4 5 4 9 4 7 9 5 1 2 6 12 16 17 13 10 7 7 8 6 7 7 7 7 6 3 3 3 4 4 4 4 4 7 10 10 8 8 9 8 7 7 6 7 8 8 8 9 10 10 10 10 10 9 9 9 9 8 8 8 7 6 6 6 5 5 4 4 5 6 6 6 6 5 4 3 4
9 9 8 7 9 9 10 7 nan 1 4 4 4 1 3 6 5 7 4 1 3 5 10 3 4 7 6 9 4 6 7 12 16 16 14 11 9 8 8 6 8 7 6 6 5 3 2 3 3 4 3 2 3 4 7 7 8 8 9 9 8 7 7 7 8 9 10 11 12 12 12 12 11 11 12 12 12 11 11 10 9 8 7 7 7 7 7 7 8 8 8 9 8 7 6 7 7
9 11 10 10 9 9 nan 6 nan nan nan 4 3 1 2 6 5 2 6 6 3 5 10 3 7 4 7 5 8 11 12 12 14 15 14 12 9 7 7 7 7 7 5 5 4 2 1 2 4 4 3 2 3 5 7 9 8 9 10 9 8 8 8 8 9 10 12 13 13 13 13 14 13 15 13 16 15 14 13 14 12 11 10 10 10 10 10 10 10 10 10 10 10 9 9 9 9
10 12 12 10 13 8 8 nan nan nan nan 4 1 2 3 4 7 6 4 8 3 5 3 4 2 2 13 5 15 16 14 12 13 15 14 10 8 6 5 5 6 6 5 4 1 1 2 2 3 3 3 2 3 5 8 10 10 9 10 9 9 9 9 9 10 11 13 13 14 14 14 17 18 19 19 19 19 17 16 16 13 13 12 12 12 12 11 11 11 11 11 11 11 11 11 10 11
17 11 13 11 9 8 6 7 nan nan nan 4 2 4 2 1 4 3 4 6 11 2 4 5 6 5 7 10 14 17 15 15 15 16 13 11 8 8 6 6 7 6 5 3 1 2 1 2 3 3 3 2 3 6 9 11 12 9 10 10 9 10 11 12 13 15 15 17 15 16 18 19 20 19 20 18 20 18 17 15 13 13 13 13 13 12 12 12 12 12 12 12 12 11 10 13 14
12 15 13 10 10 7 5 8 nan nan nan nan 2 2 5 4 6 2 2 2 4 3 4 7 7 7 10 13 18 19 19 16 16 16 17 16 11 11 9 6 6 6 5 2 1 2 2 3 3 3 2 3 4 7 9 11 12 11 11 9 11 11 14 14 16 17 17 18 18 18 19 20 19 19 20 18 18 18 18 15 14 14 14 14 13 14 14 14 14 13 13 13 13 12 13 14 14
9 15 11 9 8 10 9 nan nan nan nan 7 4 1 3 1 3 4 3 5 2 3 3 5 6 10 14 14 18 19 18 16 16 16 17 15 12 11 10 10 8 6 5 3 1 2 2 3 3 3 2 2 5 9 10 12 13 11 11 11 13 13 16 16 16 17 18 18 18 18 18 19 19 19 20 18 17 17 18 16 15 14 14 14 14 15 14 14 14 14 14 13 13 13 14 14 14
15 11 11 11 9 9 8 8 9 nan nan 5 2 4 2 3 1 5 3 8 2 5 6 10 13 15 16 17 18 18 18 16 16 15 15 13 11 9 8 9 9 6 3 3 2 2 3 4 3 3 3 3 6 10 11 12 13 12 12 13 14 14 15 16 16 16 18 18 17 18 18 18 18 19 20 17 16 16 17 17 16 16 15 16 14 16 16 16 14 15 15 14 13 13 13 14 13
19 5 3 11 17 10 7 9 5 nan 4 6 6 4 7 2 0 4 6 7 6 10 10 8 14 18 19 20 18 17 18 17 17 17 16 15 15 12 10 7 6 5 3 2 2 1 3 4 4 4 3 4 7 11 12 13 12 13 14 14 14 15 15 16 15 16 17 18 18 18 18 17 17 18 17 16 16 15 15 15 14 15 15 15 15 16 16 16 15 15 14 14 14 13 13 13 13
13 13 9 8 8 11 16 9 8 nan 9 5 4 5 nan 3 3 5 7 10 5 4 8 10 15 20 20 19 18 17 17 18 18 18 16 14 12 10 11 9 9 7 3 1 1 1 3 5 4 3 3 5 8 12 13 14 15 15 14 14 13 15 15 15 16 17 18 18 18 17 16 16 16 16 15 15 15 15 14 14 14 14 14 15 14 14 15 15 15 15 14 13 13 13 13 12 12
15 15 15 11 11 4 7 14 11 nan 9 2 1 5 5 nan nan 3 7 8 3 10 7 9 10 12 17 17 18 20 19 20 19 17 17 16 14 13 12 11 8 5 3 2 1 0 2 4 5 3 4 6 9 12 13 14 15 15 14 14 14 14 14 16 16 17 17 17 16 16 15 15 15 15 15 15 15 14 14 13 13 13 13 15 14 13 14 14 14 13 12 11 11 12 12 12 12
11 nan nan 11 nan nan nan nan nan nan 5 nan nan 4 7 nan nan nan nan 4 9 13 9 9 12 13 15 17 18 17 16 14 15 14 12 9 10 8 8 6 6 5 4 2 1 1 2 4 5 3 4 6 10 12 14 15 15 14 13 13 13 14 15 16 16 15 15 15 15 14 13 14 14 14 14 15 13 14 14 13 12 13 13 14 13 14 13 13 13 12 12 11 10 11 12 13 11
nan nan nan nan nan nan nan nan nan nan nan nan nan nan nan nan nan nan nan 7 11 14 12 12 14 15 16 18 19 17 16 17 16 16 15 12 10 9 8 6 6 6 5 3 1 1 2 4 4 3 4 6 9 11 14 14 14 13 13 13 13 14 15 15 14 14 14 13 14 14 14 14 14 14 14 13 12 13 13 12 12 13 14 13 13 15 13 11 12 12 13 13 12 11 13 14 12
nan nan nan nan nan nan nan nan nan nan nan nan nan nan nan nan nan nan 6 13 13 13 14 13 15 17 16 17 17 16 17 16 17 14 12 11 11 9 8 6 6 5 3 3 1 1 2 3 4 4 5 8 10 11 13 13 13 14 13 12 13 14 14 14 14 14 13 13 13 13 14 14 13 12 12 12 11 11 12 11 13 12 13 14 13 14 12 12 13 15 15 15 13 12 14 14 13
nan nan nan nan nan nan nan nan nan nan nan nan nan nan nan nan nan nan 6 14 17 16 14 13 12 14 16 18 17 15 15 13 11 13 16 15 11 9 8 6 5 3 3 3 0 1 1 3 3 3 5 8 10 11 12 13 13 13 12 12 13 13 12 13 13 13 13 13 12 13 13 13 12 12 12 12 11 11 13 13 13 13 15 14 13 13 14 14 16 17 16 16 14 13 13 13 13
nan nan nan nan nan nan nan nan 18 nan nan nan nan 14 nan nan nan 6 9 13 17 19 16 13 10 12 15 17 15 15 15 15 12 12 14 12 10 9 10 7 6 2 3 1 1 0 2 2 3 3 5 9 10 10 11 13 12 12 12 12 12 12 12 12 12 12 13 12 12 12 13 13 12 12 12 13 12 13 14 13 14 15 15 15 14 15 16 16 16 17 16 14 13 13 13 13 14
nan nan nan nan nan nan nan nan nan 17 20 18 17 nan nan nan nan 8 11 12 14 16 15 12 8 9 12 14 14 15 14 15 14 13 11 10 10 10 10 8 6 2 2 3 1 1 2 5 6 5 5 8 10 11 12 12 12 12 12 11 11 11 12 11 11 11 12 12 12 12 12 12 12 12 12 13 12 13 14 15 15 16 15 15 15 16 17 16 15 15 16 14 14 13 15 15 15
nan nan nan nan nan nan nan nan nan nan 22 nan nan nan nan nan nan 8 11 13 14 14 14 13 9 9 11 12 13 15 17 17 17 15 13 11 9 7 7 7 6 2 4 2 1 1 2 4 5 6 6 9 10 11 11 12 11 11 11 10 10 11 11 11 11 11 11 11 11 12 12 12 12 12 13 13 13 13 15 15 16 16 15 15 16 16 14 13 14 16 16 15 14 14 15 15 14
nan nan nan nan nan nan nan nan nan nan nan 18 14 nan nan nan nan 9 12 12 14 14 13 13 11 9 10 10 13 14 16 15 15 15 14 13 10 6 6 7 6 3 2 1 2 2 3 4 5 5 5 8 10 11 12 11 10 10 11 10 10 10 11 11 11 11 10 11 11 12 13 12 12 12 12 13 13 13 14 15 17 16 15 14 15 13 12 14 14 16 17 16 16 16 14 13 12
nan nan nan nan nan nan nan nan nan nan nan nan nan nan nan nan 6 8 11 14 14 14 13 12 12 11 10 9 11 13 13 14 15 16 16 13 9 5 4 5 5 3 3 2 1 1 2 3 4 4 4 8 10 11 11 12 11 10 10 10 9 9 10 11 11 11 10 10 11 12 12 12 12 12 12 12 12 13 14 16 16 15 14 13 13 13 13 14 13 15 17 16 14 15 12 12 12
nan nan nan nan nan nan nan nan nan nan nan nan nan nan nan nan 6 7 8 14 15 14 16 15 12 8 10 7 10 13 14 15 18 18 18 16 9 7 3 3 4 3 3 2 1 1 1 2 5 5 6 9 11 11 11 11 11 10 9 10 9 9 11 11 11 10 10 10 10 12 11 11 11 11 11 11 12 12 13 14 14 13 13 13 13 12 14 13 14 14 16 16 14 12 11 11 12
nan nan nan nan nan nan nan nan nan nan nan nan nan nan nan nan 7 7 9 12 15 15 17 18 13 8 9 8 9 13 14 17 18 17 19 17 13 8 3 2 3 2 3 3 3 3 3 3 7 7 7 9 11 12 12 12 11 10 10 9 9 9 10 11 10 10 10 10 11 11 10 11 11 11 11 10 10 12 12 13 13 13 13 12 12 13 13 13 15 15 14 15 12 11 11 12 11
nan nan nan nan nan nan nan nan nan nan nan nan nan nan nan nan 6 4 9 11 12 13 15 17 14 9 8 9 10 12 14 18 14 15 19 17 13 9 4 1 1 1 3 4 3 2 1 1 5 7 7 9 12 12 12 11 10 8 8 9 9 9 9 10 10 10 9 10 11 10 11 11 11 10 11 10 10 11 11 12 13 12 12 11 11 12 13 14 16 16 15 12 12 11 10 11 10
nan nan nan nan nan nan nan nan nan nan nan nan nan nan nan nan 4 5 7 7 7 10 13 16 16 12 9 9 12 14 15 17 14 16 17 19 17 12 7 3 1 1 2 3 2 1 2 1 2 3 6 8 11 12 11 9 8 8 9 8 8 8 8 9 9 10 9 10 10 11 12 12 11 10 10 9 10 10 11 11 11 12 11 11 11 13 13 14 15 15 14 13 12 12 12 11 10
nan nan nan nan nan nan nan nan nan nan nan nan nan nan nan nan nan 6 8 7 5 8 10 14 17 16 10 12 15 16 16 8 11 13 15 17 16 15 10 5 3 2 3 1 2 2 1 1 1 4 7 7 9 11 12 11 11 9 7 7 8 8 8 8 9 10 9 10 10 11 12 11 11 10 10 9 9 9 9 10 11 11 11 11 12 11 11 12 13 13 12 11 11 12 13 12 12
nan nan nan nan nan nan nan nan nan nan nan nan nan nan nan nan nan 10 9 5 4 6 9 12 16 16 11 11 14 14 10 11 13 16 15 17 19 17 12 7 5 3 1 1 1 1 1 0 2 5 6 7 10 11 13 13 13 11 8 8 7 9 10 9 8 8 8 9 10 10 11 11 10 10 9 9 8 9 9 9 10 10 10 10 10 10 9 11 12 11 10 10 10 9 10 10 11
nan nan nan nan nan nan nan nan nan nan nan nan nan nan nan nan nan 11 6 4 4 2 5 8 12 16 15 14 13 13 14 14 16 18 18 17 18 17 13 9 7 4 0 1 0 2 1 1 1 4 5 6 9 11 12 13 12 11 9 9 8 7 7 8 8 7 8 8 10 10 10 10 10 9 9 8 8 8 8 8 9 9 9 9 9 8 8 9 10 9 8 9 6 8 9 11 10
nan nan nan nan nan nan nan nan nan nan nan nan nan nan nan nan nan nan 13 6 6 3 2 3 5 10 15 12 9 10 14 14 14 15 15 15 17 19 18 12 7 5 2 1 2 2 1 4 2 2 6 6 8 10 10 12 11 11 9 10 8 8 9 7 8 9 8 8 8 8 11 9 9 9 9 9 7 7 7 7 7 8 8 9 8 7 7 9 9 8 8 7 7 8 10 11 10
nan nan nan nan nan nan nan nan nan nan nan nan nan nan nan nan nan nan nan nan 9 6 4 2 4 6 9 10 9 8 8 9 12 16 18 18 19 17 16 13 10 6 4 1 1 0 0 1 3 4 8 8 8 8 8 9 8 6 6 6 5 6 8 7 7 8 8 7 9 8 7 8 7 7 7 8 7 6 6 6 6 6 7 7 7 7 6 6 7 8 8 8 8 8 8 9 12
nan nan nan nan nan nan nan nan nan nan nan nan nan nan nan nan nan nan nan nan nan 6 3 2 3 7 10 11 9 8 8 8 7 9 11 13 13 14 16 15 13 8 4 1 2 1 0 0 2 4 5 8 8 7 6 7 7 8 7 6 5 4 6 8 7 8 7 7 5 5 6 5 5 6 6 6 6 6 5 5 6 6 6 6 6 5 5 7 8 8 7 7 9 7 6 10 12
nan nan nan nan nan nan nan nan nan nan nan nan nan nan nan nan nan nan nan nan nan nan nan 5 2 6 8 10 11 8 9 10 10 11 12 13 13 14 17 18 14 11 6 4 3 2 3 2 2 3 4 6 8 7 5 5 6 7 8 7 6 3 5 6 6 7 7 5 4 5 3 4 4 5 5 5 6 6 5 6 6 6 6 6 5 6 7 7 6 6 7 8 6 7 8 10 12
nan nan nan nan nan nan nan nan nan nan nan nan nan nan nan nan nan nan nan nan nan nan nan nan nan 3 6 9 11 9 10 12 11 9 11 12 13 13 12 13 14 11 7 6 4 3 4 3 2 2 2 3 6 6 5 4 7 8 8 7 5 5 6 6 6 6 5 4 4 4 3 3 4 5 5 6 6 6 6 6 5 5 5 5 4 4 4 4 6 6 6 7 7 7 7 7 7
nan nan nan nan nan nan nan nan nan nan nan nan nan nan nan nan nan nan nan nan nan nan nan nan nan nan 8 8 9 10 10 9 8 8 8 8 10 11 10 10 9 9 7 6 5 5 5 5 3 3 2 2 4 4 4 3 5 8 8 6 3 5 6 7 7 5 5 4 4 4 4 3 4 5 6 5 6 6 6 5 5 7 6 5 4 4 3 3 3 4 6 7 7 7 6 7 10
nan nan nan nan nan nan nan nan nan nan nan nan nan nan nan nan nan nan nan nan nan nan nan nan nan nan nan 4 6 8 10 10 8 9 7 5 5 6 6 7 8 6 4 5 6 5 6 6 4 4 3 1 2 1 3 2 4 6 6 4 2 4 4 5 6 6 7 7 6 5 4 4 4 6 5 5 6 6 6 6 7 7 6 6 5 3 4 4 4 4 5 5 6 8 7 7 7
nan nan nan nan nan nan nan nan nan nan nan nan nan nan nan nan nan nan nan nan nan nan nan nan nan nan nan nan 4 5 9 9 8 9 8 6 6 3 6 7 7 7 5 5 4 5 6 6 5 4 3 1 1 1 2 2 4 5 5 3 1 3 2 4 4 5 6 7 8 7 6 4 5 4 5 5 6 7 7 7 7 7 8 7 7 4 3 3 4 4 4 6 7 7 6 7 7
nan nan nan nan nan nan nan nan nan nan nan nan nan nan nan nan nan nan nan nan nan nan nan nan nan nan nan nan nan 4 8 7 7 9 9 9 6 5 8 8 7 7 7 6 5 5 5 5 5 5 3 2 1 1 1 1 3 4 4 2 1 2 3 3 4 5 6 8 8 9 7 6 4 3 5 6 8 9 9 8 8 8 9 9 7 5 4 4 4 5 6 6 7 8 9 9 9
nan nan nan nan nan nan nan nan nan nan nan nan nan nan nan nan nan nan nan nan nan nan nan nan nan nan 11 nan nan 4 5 7 8 10 10 8 4 4 7 7 8 6 6 5 5 5 6 5 4 3 3 1 2 2 2 1 1 3 3 3 2 3 3 4 5 6 7 9 9 8 7 5 4 4 5 7 7 8 8 9 9 9 9 8 8 8 7 6 5 7 7 8 8 9 8 10 11
nan nan nan nan nan nan nan nan nan nan nan nan nan nan nan nan nan nan nan nan nan nan nan nan nan nan nan 10 11 8 1 7 10 11 9 6 2 2 4 6 7 6 6 5 5 5 6 5 4 3 1 1 1 1 4 2 3 3 4 4 3 5 5 6 7 8 8 9 9 9 8 6 4 4 4 4 3 6 7 7 8 9 9 10 10 10 10 9 9 9 10 12 12 11 11 11 10
nan nan nan nan nan nan nan nan nan nan nan nan nan nan nan nan nan nan nan nan nan nan nan nan nan nan nan 10 3 1 2 5 10 10 7 3 2 3 2 2 5 5 7 5 6 6 6 5 4 3 3 1 1 2 3 3 4 6 5 4 3 5 7 8 10 11 11 10 9 8 7 6 5 3 3 1 2 4 5 6 6 8 8 9 10 11 12 12 12 12 13 14 16 14 15 16 15
nan nan nan nan nan nan nan nan nan nan nan nan nan nan nan nan nan nan nan nan nan nan nan nan nan nan nan nan 8 nan nan 2 8 9 7 2 4 6 2 2 3 5 6 8 7 7 6 5 5 4 2 2 1 2 4 5 6 6 5 5 5 7 7 7 8 8 9 10 9 9 7 6 6 5 3 2 1 1 3 4 5 6 6 7 8 10 11 11 12 13 14 15 17 16 17 19 18
nan nan nan nan nan nan nan nan nan nan nan nan nan nan nan nan nan nan nan nan nan nan nan nan nan nan nan nan nan nan 7 3 2 4 5 5 6 3 1 1 4 6 9 9 8 6 5 5 5 5 3 1 1 2 4 6 6 6 6 6 6 6 7 8 9 10 11 12 10 9 9 8 6 5 4 3 2 1 2 3 3 4 4 4 6 7 9 9 10 11 12 13 14 14 15 16 17
nan nan nan nan nan nan nan nan nan nan nan nan nan nan nan nan nan nan nan nan nan nan nan nan nan nan nan nan nan nan 6 6 6 5 8 10 9 7 4 1 3 5 7 7 6 7 7 4 3 4 4 2 2 5 6 8 7 9 9 7 7 8 10 10 11 12 12 11 9 8 8 7 8 8 6 5 4 2 1 1 2 2 2 3 4 5 7 8 9 10 10 11 12 13 14 15 15
nan nan nan nan nan nan nan nan nan nan nan nan nan nan nan nan nan nan nan nan nan nan nan nan nan nan nan nan nan nan 3 4 7 9 10 8 5 4 3 3 4 5 6 7 7 6 6 5 4 3 3 5 6 4 6 6 7 9 10 10 10 11 11 11 11 11 10 9 9 9 9 9 7 7 6 5 4 3 1 1 1 2 3 3 4 5 7 7 8 9 10 11 12 13 14 15 15
nan nan nan nan nan nan nan nan nan nan nan nan nan nan nan nan nan nan nan nan nan nan nan nan nan nan nan nan nan nan 5 2 6 9 9 7 6 6 4 3 2 4 7 8 5 3 5 7 3 3 4 5 5 4 5 6 9 8 9 8 9 11 10 11 11 10 9 10 11 11 10 9 11 8 7 5 4 3 2 0 1 3 4 5 6 7 8 8 9 9 10 11 12 13 14 14 14
nan nan nan nan nan nan nan nan nan nan nan nan nan nan nan nan nan nan nan nan nan nan nan nan nan nan nan nan nan nan 5 2 5 9 10 9 10 8 6 6 8 10 11 8 4 4 5 4 2 3 4 4 4 4 4 5 8 8 6 8 10 12 12 12 10 10 10 11 11 11 10 11 9 9 8 6 4 4 3 2 2 3 4 5 7 8 10 11 10 10 10 11 12 13 13 13 13
Wind_Direction
17 18 295 316 313 296 325 39 85 106 118 107 nan 112 123 132 130 132 126 132 121 116 115 118 85 75 104 107 120 148 134 54 127 76 nan 131 310 321 332 311 310 311 317 330 345 3 3 15 330 323 323 324 323 322 319 318 313 309 310 312 314 312 308 309 313 314 317 322 327 338 351 3 6 12 27 44 26 76 120 130 119 108 135 155 223 301 318 355 343 320 308 318 346 357 356 335 338
28 0 320 322 347 27 57 14 95 117 106 nan nan 115 115 124 132 127 121 113 125 125 119 114 99 102 147 158 123 179 157 149 132 161 158 158 306 309 319 311 313 312 316 323 335 347 15 10 332 328 327 329 330 330 327 325 323 321 323 323 322 318 320 322 321 322 330 334 337 346 356 9 13 23 46 176 173 163 143 134 129 129 128 159 152 30 25 350 315 287 311 333 346 349 336 317 321
7 332 296 23 5 102 93 49 114 108 105 nan nan 100 114 112 120 132 124 115 140 147 129 144 155 129 119 128 129 133 117 155 174 188 191 35 300 350 324 322 313 308 309 313 327 337 10 7 335 331 328 333 335 333 332 331 332 331 331 329 326 327 333 333 328 334 341 338 339 346 1 10 18 22 63 147 162 146 143 145 136 132 130 160 148 123 37 17 347 298 306 334 347 343 303 315 320
325 248 350 45 44 97 94 69 97 95 nan nan nan 124 121 112 118 119 128 129 135 138 120 120 118 128 111 124 124 187 171 141 119 318 319 43 81 331 323 319 311 301 294 299 315 326 355 351 338 331 331 336 338 336 336 337 337 336 333 328 331 340 344 340 338 344 344 341 340 349 3 10 11 23 49 72 96 128 138 138 136 119 113 50 64 54 45 8 322 283 285 318 335 321 334 329 312
296 250 133 87 81 111 92 81 95 93 100 nan nan 124 118 123 122 120 117 116 129 131 101 110 136 152 134 124 121 133 102 197 54 116 310 127 294 317 318 310 308 304 302 308 312 317 344 351 341 331 334 338 339 340 341 339 338 338 336 336 343 344 344 339 339 341 347 341 342 351 1 3 9 27 43 51 65 99 123 108 107 108 101 95 97 82 112 119 59 318 273 292 315 318 317 325 317
234 206 114 131 99 111 100 98 95 98 101 116 128 122 108 110 119 106 104 80 106 117 106 113 124 121 154 142 141 157 294 331 66 125 323 348 330 320 318 306 305 302 301 308 311 318 347 354 341 333 338 340 342 343 343 341 341 339 344 344 344 342 338 333 328 335 339 348 348 346 360 1 16 28 32 33 34 72 83 91 96 103 133 125 109 96 100 116 86 1 320 279 254 246 308 332 336
16 101 122 122 116 107 107 105 104 104 116 111 130 125 106 125 126 132 125 117 122 95 118 135 203 223 166 117 177 189 262 285 340 21 272 316 323 315 316 304 299 303 305 313 317 328 355 356 346 336 339 343 344 344 346 345 344 345 344 346 345 338 329 322 324 330 343 346 343 353 360 6 15 34 32 28 54 60 67 74 82 81 9 114 110 91 53 51 55 357 338 314 262 230 131 26 27
127 141 142 150 146 126 111 114 109 101 116 119 137 132 121 129 136 128 99 80 80 111 127 70 126 202 156 148 145 126 276 222 305 310 291 300 318 311 307 305 296 301 309 316 325 337 355 354 349 338 343 347 347 348 348 348 349 350 349 349 341 333 326 325 325 335 333 342 346 2 15 14 14 25 22 68 71 58 56 63 64 61 9 51 64 65 69 53 54 0 351 334 300 214 95 74 62
169 159 166 164 141 139 125 106 110 108 111 141 135 132 142 143 121 114 121 132 184 119 61 47 90 230 110 226 183 202 223 287 304 317 307 302 313 311 288 299 295 298 310 320 325 344 360 358 350 342 346 349 349 351 352 353 354 356 355 351 342 337 333 332 337 339 352 360 356 1 21 18 25 26 49 42 63 63 58 53 60 59 42 36 49 59 47 56 32 357 1 358 1 181 130 79 64
176 161 167 148 150 127 145 nan 145 128 144 140 123 120 125 136 122 123 138 140 146 268 159 158 151 279 292 258 264 203 353 302 315 320 312 310 313 306 299 302 295 303 307 315 326 338 13 360 350 345 350 352 352 356 356 360 0 1 2 358 354 349 348 351 355 357 359 359 7 21 30 43 38 48 54 61 62 60 65 64 63 58 48 54 61 73 83 78 50 19 14 31 47 105 122 127 154
183 173 153 148 139 nan nan nan nan 142 164 140 143 144 135 128 140 147 127 137 270 250 205 252 220 290 276 207 153 228 310 316 327 328 322 317 319 313 297 296 300 308 312 316 323 335 18 22 352 349 352 353 356 359 2 5 7 8 10 8 6 2 4 7 11 17 20 14 6 14 48 72 81 62 56 62 61 62 58 59 57 62 59 49 44 49 60 58 52 40 31 41 62 88 117 153 168
195 180 182 143 129 133 nan nan nan nan 165 130 123 112 120 139 151 142 117 126 253 300 338 72 75 296 239 180 142 308 318 327 334 327 319 319 318 310 293 286 305 311 312 312 314 322 6 25 26 359 354 356 360 4 8 11 13 14 17 18 16 12 15 19 27 34 38 39 45 40 45 60 67 69 72 67 69 68 68 66 69 70 72 76 61 54 82 88 68 50 44 49 65 88 102 133 158
188 201 197 171 133 142 118 139 nan 130 nan nan 60 87 107 142 118 138 151 153 325 318 357 89 319 113 230 190 186 309 326 332 331 328 322 320 315 301 289 297 302 303 307 306 307 336 351 27 49 31 12 357 5 9 14 18 19 21 26 26 28 26 26 35 44 49 53 59 65 65 66 68 73 74 74 73 71 72 73 75 76 76 79 85 102 103 96 91 76 64 57 58 69 83 110 132 159
198 196 207 158 152 128 135 137 134 157 nan 119 141 62 60 104 127 156 159 126 12 346 290 307 312 272 252 250 284 358 343 332 327 329 326 320 310 298 298 301 300 296 301 310 313 331 349 36 58 59 27 29 57 26 21 25 27 30 32 36 38 42 42 50 55 59 65 67 68 69 69 71 74 76 77 77 76 78 80 83 84 83 86 89 92 97 82 78 78 74 72 72 74 83 93 107 113
207 204 202 172 150 156 147 157 nan 204 144 136 130 356 58 143 166 170 136 323 149 260 286 259 351 287 34 351 356 4 350 334 327 329 327 319 311 307 303 301 295 290 298 316 320 332 357 49 69 81 76 73 67 90 94 66 37 40 39 43 47 49 56 62 66 71 70 71 69 72 74 73 75 76 77 77 77 75 77 78 77 84 86 88 87 86 85 80 80 82 84 85 83 82 82 78 77
224 210 212 186 152 167 nan 175 nan nan nan 209 119 64 195 163 161 193 122 153 215 302 319 305 66 135 347 39 331 334 333 329 327 327 323 318 313 309 306 307 300 299 299 312 328 352 8 64 91 93 91 85 102 106 105 107 71 50 49 49 53 61 63 69 71 75 76 73 74 74 74 83 81 87 80 86 76 71 75 85 81 84 84 84 82 80 79 78 78 80 81 82 81 78 70 72 75
234 217 207 189 155 175 157 nan nan nan nan 243 183 35 134 153 176 183 188 184 321 343 302 297 66 292 351 351 327 322 327 326 326 325 320 314 321 323 312 317 306 302 307 312 326 27 26 68 90 105 98 95 108 108 113 119 101 62 68 59 56 62 70 70 76 75 79 81 84 80 84 105 103 100 90 97 83 96 84 79 79 79 81 81 81 82 81 79 77 77 77 75 76 74 71 71 74
232 226 224 186 178 184 153 174 nan nan nan 291 340 44 49 155 179 202 227 175 168 139 202 278 194 248 312 311 317 323 329 332 332 328 325 318 321 328 324 329 323 319 318 312 9 71 58 99 92 96 108 86 106 114 119 124 119 90 109 103 104 94 84 84 93 103 94 107 85 98 109 105 105 101 99 88 102 92 89 77 77 75 75 75 77 79 78 77 74 74 75 75 74 74 87 101 94
231 223 225 195 210 178 189 176 nan nan nan nan 270 40 25 49 307 357 299 100 171 162 194 254 251 271 295 319 323 331 338 339 334 333 329 328 328 331 331 328 329 315 328 304 142 63 104 124 110 96 100 95 103 120 122 127 127 123 115 116 113 98 104 103 106 104 112 109 113 109 107 107 102 101 99 95 97 90 93 80 74 74 75 75 77 77 78 75 74 73 70 70 70 69 87 89 91
226 221 217 202 215 198 177 nan nan nan nan 231 237 70 34 47 312 344 12 318 253 88 275 275 314 329 329 329 333 336 344 341 338 335 334 335 332 330 332 338 332 330 325 315 292 129 109 111 98 106 89 84 104 120 127 129 131 124 118 122 121 118 116 114 111 113 110 111 109 107 104 102 101 101 89 78 80 94 91 77 74 74 75 76 78 91 87 81 77 77 74 68 80 85 83 85 89
236 218 220 220 231 214 172 170 205 nan nan 232 229 183 64 52 351 338 324 285 23 88 43 0 355 346 341 339 341 346 348 345 343 341 337 335 332 331 335 341 339 327 313 288 237 111 100 114 121 121 113 98 110 119 123 129 131 125 123 122 124 123 123 118 117 115 110 108 106 102 100 98 97 95 102 98 99 97 98 99 99 101 100 99 98 99 99 96 96 94 96 93 86 81 82 82 85
220 225 196 224 231 247 203 215 167 nan 214 222 214 233 96 137 152 355 350 348 5 34 32 29 355 347 346 346 349 354 355 350 349 346 344 340 340 335 329 333 332 316 291 301 343 94 110 120 118 131 119 104 109 114 120 123 120 121 121 122 124 126 122 117 117 112 107 105 103 101 101 96 94 95 100 94 92 97 96 98 99 100 99 98 99 97 100 98 95 93 89 90 90 86 79 77 78
201 201 203 210 220 210 238 237 206 nan 217 211 234 97 nan 28 97 17 28 33 40 349 359 5 1 354 353 346 348 358 357 355 354 351 342 337 336 330 330 334 337 337 328 345 328 127 131 131 127 133 115 118 114 122 128 126 124 123 124 123 121 118 120 114 108 105 103 104 101 100 95 93 92 92 95 92 87 92 92 96 95 96 94 96 98 97 98 96 92 90 86 83 83 85 85 84 79
194 196 214 208 240 231 233 230 225 nan 242 215 140 196 114 nan nan 26 62 73 302 317 354 355 348 344 343 349 0 1 3 360 358 356 348 343 340 334 335 337 336 321 319 340 6 52 126 121 127 124 127 126 127 125 126 125 128 125 124 121 118 113 113 108 104 101 101 99 100 97 96 90 89 88 93 89 86 90 88 89 91 91 93 93 95 92 92 96 93 92 90 88 84 87 87 84 85
198 nan nan 185 nan nan nan nan nan nan 248 nan nan 247 67 nan nan nan nan 49 316 313 321 336 339 350 357 354 2 6 6 2 356 353 346 339 337 323 332 324 330 332 344 349 346 15 89 135 131 115 130 127 133 129 126 127 129 129 127 120 117 108 111 106 102 105 100 99 100 96 94 88 88 86 86 85 88 87 88 86 84 85 86 88 88 88 83 88 93 93 92 86 80 83 87 88 82
nan nan nan nan nan nan nan nan nan nan nan nan nan nan nan nan nan nan nan 324 321 308 317 336 346 356 5 6 6 6 6 4 357 356 356 344 335 330 341 337 335 352 0 331 317 63 113 140 124 109 120 130 134 132 131 127 126 124 123 118 119 113 110 107 108 103 101 99 97 95 91 88 84 81 82 85 80 83 85 84 85 82 75 81 81 82 84 85 92 97 94 89 81 76 78 84 80
nan nan nan nan nan nan nan nan nan nan nan nan nan nan nan nan nan nan 263 305 306 312 325 343 353 2 8 9 9 9 5 4 2 358 355 346 338 334 330 332 349 357 346 351 340 78 121 141 129 121 132 142 144 132 130 125 127 123 123 123 122 112 110 109 107 106 103 100 95 90 90 89 85 83 81 80 82 79 81 79 77 79 80 75 74 81 87 84 89 89 88 85 82 76 75 79 74
nan nan nan nan nan nan nan nan nan nan nan nan nan nan nan nan nan nan 279 310 314 317 327 345 4 7 10 7 8 10 7 5 2 3 2 351 343 329 326 330 343 347 20 14 328 190 118 104 125 122 137 145 140 133 131 127 125 122 125 127 117 112 112 108 106 107 104 101 97 91 86 83 83 80 77 79 74 73 74 73 74 74 78 82 80 82 84 85 85 86 85 84 77 73 74 72 67
nan nan nan nan nan nan nan nan 218 nan nan nan nan 208 nan nan nan 226 290 309 316 319 327 341 9 20 12 7 8 12 9 3 4 12 10 1 346 334 335 330 325 333 141 63 261 265 64 112 141 121 144 147 139 132 129 129 131 127 125 121 118 114 109 109 106 105 104 103 98 89 84 80 80 74 74 71 68 68 70 72 74 76 81 86 88 88 89 90 86 85 84 80 81 77 73 68 62
nan nan nan nan nan nan nan nan nan 238 223 246 242 nan nan nan nan 266 288 305 310 314 322 334 1 24 15 9 11 12 11 8 11 12 9 5 355 346 338 331 330 314 186 174 228 79 139 157 162 154 142 145 139 139 138 135 130 127 126 124 120 114 112 109 105 107 104 101 95 89 86 81 78 75 69 73 70 69 73 75 79 83 86 91 91 89 86 85 81 80 79 76 73 72 72 67 58
nan nan nan nan nan nan nan nan nan nan 241 nan nan nan nan nan nan 274 293 303 310 314 321 333 346 14 18 12 11 11 15 18 12 6 10 9 358 353 347 330 333 318 197 190 31 102 137 156 169 160 143 147 147 140 137 135 135 129 125 125 118 113 112 108 105 106 103 98 93 88 84 82 78 71 67 63 66 68 74 81 87 89 93 95 90 87 82 84 80 74 77 75 80 76 73 67 57
nan nan nan nan nan nan nan nan nan nan nan 256 250 nan nan nan nan 285 292 301 305 307 320 327 340 4 17 18 14 15 18 20 15 9 9 6 0 358 357 351 340 314 237 215 217 195 138 162 172 160 147 146 148 145 144 139 133 130 128 124 120 116 113 107 105 102 99 98 93 89 84 79 76 71 65 63 62 67 76 84 89 94 95 93 88 86 84 77 77 78 86 85 83 83 76 70 64
nan nan nan nan nan nan nan nan nan nan nan nan nan nan nan nan 207 277 291 297 296 303 318 325 341 359 18 24 22 22 19 21 18 13 10 5 3 359 8 357 346 322 241 239 257 205 150 165 173 155 139 144 153 151 150 147 142 132 127 120 113 115 108 105 104 103 102 96 93 87 82 77 73 67 62 61 62 68 80 88 94 95 96 87 81 80 76 75 72 78 92 96 88 84 77 71 66
nan nan nan nan nan nan nan nan nan nan nan nan nan nan nan nan 253 278 289 294 289 304 321 325 336 1 27 34 27 25 24 20 17 13 13 7 357 354 359 8 346 312 246 251 237 223 127 181 176 162 166 159 160 158 154 151 144 136 132 126 121 110 104 104 102 100 96 92 89 84 79 77 73 67 63 62 68 75 84 91 97 96 89 83 80 79 77 78 78 83 96 106 97 90 76 66 65
nan nan nan nan nan nan nan nan nan nan nan nan nan nan nan nan 248 284 304 293 299 315 319 322 331 359 25 40 38 30 25 24 20 12 10 10 1 349 340 1 354 328 226 253 241 213 194 182 185 175 177 166 163 166 164 159 152 143 138 128 118 109 110 107 103 96 91 88 82 79 74 74 71 68 68 66 72 84 93 95 95 90 82 78 82 83 85 81 85 96 97 101 98 81 70 59 59
nan nan nan nan nan nan nan nan nan nan nan nan nan nan nan nan 235 287 295 301 311 315 312 315 327 350 14 35 46 38 30 26 20 10 7 10 10 356 336 333 27 198 223 235 258 247 259 201 186 184 181 175 173 171 170 161 155 140 124 127 124 114 109 107 104 91 90 85 80 75 70 69 71 69 71 71 76 85 90 90 89 87 81 77 80 83 84 82 82 91 95 87 87 82 76 65 54
nan nan nan nan nan nan nan nan nan nan nan nan nan nan nan nan 256 293 292 277 275 294 315 319 324 336 1 31 41 38 31 24 12 8 3 7 11 8 352 323 313 154 194 255 271 304 336 353 204 181 191 188 176 170 163 158 151 145 140 124 110 110 105 106 105 100 93 86 79 72 67 68 71 72 74 73 75 82 85 89 88 87 83 78 79 79 80 79 83 81 82 87 78 78 74 72 66
nan nan nan nan nan nan nan nan nan nan nan nan nan nan nan nan nan 260 258 267 307 324 334 332 330 333 346 22 34 35 35 18 5 11 4 2 9 13 6 346 335 28 134 266 310 332 341 327 164 188 199 188 174 169 164 161 159 155 152 133 131 129 123 112 107 108 96 92 81 73 69 68 68 71 74 76 78 80 85 89 87 83 81 83 85 89 88 87 84 82 78 79 82 68 68 65 60
nan nan nan nan nan nan nan nan nan nan nan nan nan nan nan nan nan 237 258 302 317 326 345 347 331 328 337 19 33 34 28 19 12 16 8 3 3 10 16 9 359 15 124 129 256 260 323 319 178 194 194 193 180 175 173 164 166 168 162 153 134 147 135 123 116 113 107 91 85 78 72 69 67 74 75 74 77 85 86 86 85 86 87 91 96 94 94 88 84 77 70 65 76 79 72 68 57
nan nan nan nan nan nan nan nan nan nan nan nan nan nan nan nan nan 229 225 259 248 316 354 338 324 329 340 2 17 23 23 16 17 16 13 3 359 6 16 17 4 350 145 161 258 11 343 345 211 195 199 204 190 182 177 173 171 171 163 165 155 148 137 134 130 122 106 99 84 80 81 74 70 72 74 74 78 83 87 88 91 91 91 95 89 87 89 86 90 88 80 74 65 69 74 71 59
nan nan nan nan nan nan nan nan nan nan nan nan nan nan nan nan nan nan 191 194 225 224 236 281 313 336 343 344 358 17 17 17 20 19 15 5 359 4 12 17 7 1 13 53 25 13 202 353 334 230 210 216 203 196 190 187 182 181 176 175 169 163 164 150 144 130 109 100 98 90 77 78 75 74 73 69 71 74 91 97 96 93 93 90 90 81 74 72 73 73 66 65 60 55 63 68 68
nan nan nan nan nan nan nan nan nan nan nan nan nan nan nan nan nan nan nan nan 185 196 242 306 354 326 293 296 343 13 23 21 23 19 17 13 6 360 3 9 19 22 21 61 130 42 221 264 301 255 217 216 217 211 206 197 176 171 166 150 140 131 134 147 126 110 116 99 78 83 85 75 75 80 79 69 68 76 76 86 92 90 89 83 75 70 65 65 66 64 59 52 56 64 56 53 63
nan nan nan nan nan nan nan nan nan nan nan nan nan nan nan nan nan nan nan nan nan 187 168 63 328 276 283 305 317 340 4 12 31 38 27 19 11 359 358 7 17 19 25 304 228 225 355 260 319 296 246 224 226 224 218 198 178 160 136 132 147 136 122 128 117 108 98 105 122 91 81 82 75 70 81 75 69 67 66 69 69 73 74 70 72 63 54 44 42 46 47 47 50 49 58 54 55
nan nan nan nan nan nan nan nan nan nan nan nan nan nan nan nan nan nan nan nan nan nan nan 128 216 268 301 308 308 324 349 356 3 19 20 20 15 6 1 8 10 16 0 327 307 283 328 336 327 313 254 237 233 233 226 199 176 159 156 162 171 132 85 89 95 108 133 155 112 92 98 82 70 73 73 74 66 63 57 55 59 64 65 64 55 49 46 44 36 44 37 43 40 42 44 47 58
nan nan nan nan nan nan nan nan nan nan nan nan nan nan nan nan nan nan nan nan nan nan nan nan nan 349 349 330 314 322 336 344 351 4 15 13 13 12 5 7 15 7 352 343 327 291 289 290 302 305 296 254 238 250 236 203 179 173 175 183 165 124 103 115 134 150 153 149 121 135 121 102 77 74 75 70 68 63 61 52 52 62 65 66 59 52 56 41 32 26 32 39 38 48 49 56 52
nan nan nan nan nan nan nan nan nan nan nan nan nan nan nan nan nan nan nan nan nan nan nan nan nan nan 15 352 324 313 304 309 329 0 13 15 6 4 7 10 8 10 360 339 315 271 263 261 283 320 348 224 226 252 245 220 189 189 191 192 136 116 131 156 174 158 142 139 110 118 130 115 85 81 81 79 72 68 62 52 42 44 51 54 56 48 40 35 41 34 31 31 32 36 51 48 49
nan nan nan nan nan nan nan nan nan nan nan nan nan nan nan nan nan nan nan nan nan nan nan nan nan nan nan 357 323 288 279 289 308 334 347 5 349 354 356 9 17 8 354 334 320 305 284 282 299 328 356 212 209 242 251 236 203 196 196 206 104 99 138 178 177 153 150 149 125 128 129 102 91 81 82 80 67 66 63 52 41 40 42 46 48 38 27 14 20 26 28 30 32 33 35 43 58
nan nan nan nan nan nan nan nan nan nan nan nan nan nan nan nan nan nan nan nan nan nan nan nan nan nan nan nan 318 275 264 274 301 311 319 287 259 357 21 20 13 7 351 347 327 307 291 284 289 329 348 356 165 173 230 221 209 203 203 219 102 108 181 182 150 131 132 124 126 130 139 146 112 99 89 78 66 59 55 51 43 35 35 39 46 39 24 2 359 12 21 20 29 33 31 29 42
nan nan nan nan nan nan nan nan nan nan nan nan nan nan nan nan nan nan nan nan nan nan nan nan nan nan nan nan nan 288 244 255 267 276 278 263 277 3 24 20 14 10 1 348 326 300 287 277 295 322 5 13 122 158 190 217 214 212 219 228 147 170 201 185 154 141 138 125 131 143 158 135 141 118 83 62 57 45 45 43 37 31 35 38 41 38 38 10 355 3 23 26 23 25 26 20 26
nan nan nan nan nan nan nan nan nan nan nan nan nan nan nan nan nan nan nan nan nan nan nan nan nan nan 26 nan nan 5 230 246 257 266 269 264 273 1 12 4 21 19 352 331 311 291 274 264 283 314 12 16 170 165 164 193 206 231 235 234 201 198 209 200 168 149 140 138 144 140 144 134 121 75 56 50 41 37 44 43 37 37 39 42 43 43 44 41 21 15 22 32 31 28 23 21 24
nan nan nan nan nan nan nan nan nan nan nan nan nan nan nan nan nan nan nan nan nan nan nan nan nan nan nan 21 5 12 307 238 249 256 265 267 268 347 347 5 14 10 349 318 292 287 274 272 276 310 331 70 160 175 185 175 192 219 229 227 209 200 205 199 179 169 159 153 154 147 146 152 136 106 67 54 6 23 38 41 41 38 41 46 49 52 54 53 52 43 37 42 42 32 27 24 26
nan nan nan nan nan nan nan nan nan nan nan nan nan nan nan nan nan nan nan nan nan nan nan nan nan nan nan 171 211 7 135 230 244 248 258 254 187 216 243 9 12 357 346 322 309 286 285 291 294 311 327 356 151 191 193 197 199 210 221 225 205 205 206 203 191 181 173 171 164 156 151 150 134 129 129 212 349 357 20 33 37 43 44 48 51 55 56 54 55 53 51 48 50 43 37 34 34
nan nan nan nan nan nan nan nan nan nan nan nan nan nan nan nan nan nan nan nan nan nan nan nan nan nan nan nan 191 nan nan 210 242 241 246 277 228 220 207 15 359 351 349 348 330 310 312 294 280 291 280 225 169 187 202 206 210 213 219 221 209 205 210 210 199 187 181 184 179 170 167 149 154 171 183 193 254 319 358 14 31 44 45 45 45 48 49 50 45 48 48 45 47 43 40 39 35
nan nan nan nan nan nan nan nan nan nan nan nan nan nan nan nan nan nan nan nan nan nan nan nan nan nan nan nan nan nan 117 132 238 253 263 272 264 270 259 304 338 359 359 348 334 300 274 279 292 298 283 311 164 216 215 214 218 213 217 224 213 210 209 204 202 195 192 193 188 184 181 179 166 171 182 183 195 280 309 356 18 36 43 34 31 30 34 34 28 34 36 35 34 28 33 36 34
nan nan nan nan nan nan nan nan nan nan nan nan nan nan nan nan nan nan nan nan nan nan nan nan nan nan nan nan nan nan 92 152 174 178 211 222 219 213 215 287 352 3 342 332 317 283 256 252 280 299 317 312 257 213 211 210 218 212 212 216 214 207 206 205 202 199 198 193 190 189 185 177 184 182 175 179 185 185 257 331 352 14 11 16 6 6 5 9 5 11 13 18 14 9 14 22 25
nan nan nan nan nan nan nan nan nan nan nan nan nan nan nan nan nan nan nan nan nan nan nan nan nan nan nan nan nan nan 21 189 185 180 188 201 217 256 300 333 351 344 322 309 311 284 280 270 270 268 258 242 232 222 219 215 217 218 216 216 209 207 209 207 206 205 197 191 192 194 188 188 179 184 167 168 175 175 194 329 327 340 343 334 330 339 334 343 342 350 350 354 355 351 359 7 9
nan nan nan nan nan nan nan nan nan nan nan nan nan nan nan nan nan nan nan nan nan nan nan nan nan nan nan nan nan nan 320 278 221 204 191 193 217 244 266 296 324 289 263 257 266 293 262 249 255 284 286 270 264 262 239 216 219 218 225 224 216 214 214 211 207 201 191 190 195 194 190 181 193 181 179 173 174 179 201 281 319 313 325 320 322 322 314 316 324 334 337 339 335 338 350 354 351
nan nan nan nan nan nan nan nan nan nan nan nan nan nan nan nan nan nan nan nan nan nan nan nan nan nan nan nan nan nan 279 284 251 235 227 222 231 241 248 240 227 245 253 262 276 252 229 231 238 261 269 261 278 271 250 234 225 220 227 223 217 214 215 213 205 194 188 192 194 193 190 193 185 181 191 182 187 200 215 259 286 310 313 316 316 318 311 308 318 327 332 323 327 332 341 347 339